Weather History for Toledo Metcalf, OH

Change the Weather History Date:

Wednesday, December 19, 2012

  Actual Average (KTOL) Record (KTOL)
Temperature  
Mean Temperature 36 °F 28 °F  
Max Temperature 43 °F 35 °F 59 °F (1895)
Min Temperature 30 °F 22 °F -8 °F (1884)
Degree Days  
Heating Degree Days 28 36  
Month to date heating degree days 638  
Since 1 July heating degree days 1871  
Cooling Degree Days 0 0  
Month to date cooling degree days 0  
Year to date cooling degree days 793  
Moisture  
Dew Point 34 °F    
Average Humidity 88    
Maximum Humidity 100    
Minimum Humidity 68    
Precipitation  
Precipitation 0.00 in 0.09 in 0.94 in (2008)
Month to date precipitation 1.67  
Year to date precipitation 33.23  
Snow  
Snow 0.00 in 0.30 in - ()
Month to date snowfall 4.0  
Since 1 July snowfall 6.1  
Snow Depth -    
Sea Level Pressure  
Sea Level Pressure 29.95 in    
Wind  
Wind Speed 1 mph (NW)    
Max Wind Speed 8 mph    
Max Gust Speed -    
Visibility 5 miles    
Events Fog    
T = Trace of Precipitation, MM = Missing Value Source: NWS Daily Summary

Daily Weather History Graph

Daily Weather History Graph

Search for Another Location

Airport:

Trip Planner

Search our weather history database for the weather conditions in past years. The results will help you decide how hot, cold, wet, or windy it might be!

Date:

Astronomy

Dec. 19, 2012 Rise Set
Actual Time 7:56 AM EST 5:06 PM EST
Civil Twilight 7:24 AM EST 5:37 PM EST
Nautical Twilight 6:49 AM EST 6:12 PM EST
Astronomical Twilight 6:16 AM EST 6:46 PM EST
Moon 11:59 AM EST (12/19) No Moon Set
Length of Visible Light 10h 12m
Length of Day
9h 09m
Waxing Crescent, 45% of the Moon is Illuminated
Dec 19
Waxing Crescent
Dec 20
First Quarter
Dec 28
Full
Jan 4
Last Quarter
Jan 11
New

Hourly Weather History & Observations

Time (EST) Temp. Windchill Dew Point Humidity Pressure Visibility Wind Dir Wind Speed Gust Speed Precip Events Conditions
12:53 AM 37.0 °F - 36.0 °F 96% 29.75 in 3.0 mi Calm Calm - 0.00 in   Overcast
1:18 AM 37.4 °F - 35.6 °F 93% 29.74 in 4.0 mi Calm Calm - N/A   Overcast
1:53 AM 36.0 °F - 34.0 °F 93% 29.77 in 2.0 mi Calm Calm - N/A   Scattered Clouds
2:08 AM 35.6 °F - 33.8 °F 93% 29.76 in 3.0 mi Calm Calm - N/A   Scattered Clouds
2:26 AM 35.6 °F - 33.8 °F 93% 29.77 in 2.5 mi Calm Calm - N/A   Mostly Cloudy
2:53 AM 35.1 °F - 33.1 °F 92% 29.80 in 1.8 mi Calm Calm - N/A   Mostly Cloudy
2:57 AM 33.8 °F - 33.8 °F 100% 29.79 in 0.8 mi Calm Calm - N/A   Mostly Cloudy
3:53 AM 30.9 °F - 30.9 °F 100% 29.83 in 0.5 mi Calm Calm - N/A Fog Light Freezing Fog
4:24 AM 33.8 °F - 33.8 °F 100% 29.83 in 1.2 mi Calm Calm - N/A   Overcast
4:33 AM 33.8 °F - 33.8 °F 100% 29.83 in 2.0 mi Calm Calm - N/A   Overcast
4:40 AM 33.8 °F - 33.8 °F 100% 29.84 in 1.5 mi Calm Calm - N/A   Overcast
4:53 AM 34.0 °F 31.0 °F 33.1 °F 96% 29.86 in 2.5 mi WSW 3.5 mph - N/A   Overcast
5:07 AM 33.8 °F - 33.8 °F 100% 29.85 in 2.5 mi Calm Calm - N/A   Overcast
5:21 AM 35.6 °F - 33.8 °F 93% 29.86 in 3.0 mi Calm Calm - N/A   Overcast
5:30 AM 35.6 °F - 33.8 °F 93% 29.86 in 3.0 mi Calm Calm - N/A   Overcast
5:53 AM 35.1 °F - 34.0 °F 96% 29.88 in 3.0 mi Calm Calm - N/A   Overcast
6:53 AM 36.0 °F 32.1 °F 35.1 °F 97% 29.93 in 4.0 mi WSW 4.6 mph - N/A   Overcast
7:53 AM 37.0 °F 32.4 °F 35.1 °F 93% 29.96 in 4.0 mi WNW 5.8 mph - N/A   Overcast
8:53 AM 37.9 °F 34.4 °F 36.0 °F 93% 30.00 in 4.0 mi WNW 4.6 mph - N/A   Overcast
9:53 AM 39.0 °F 34.8 °F 35.1 °F 86% 30.03 in 5.0 mi NW 5.8 mph - N/A   Overcast
10:37 AM 39.2 °F 35.0 °F 35.6 °F 87% 30.03 in 6.0 mi West 5.8 mph - N/A   Overcast
10:53 AM 39.9 °F 35.1 °F 35.1 °F 83% 30.05 in 8.0 mi West 6.9 mph - N/A   Overcast
11:53 AM 39.9 °F 37.8 °F 34.0 °F 79% 30.07 in 10.0 mi WNW 3.5 mph - N/A   Overcast
12:53 PM 42.1 °F 39.2 °F 34.0 °F 73% 30.06 in 10.0 mi West 4.6 mph - N/A   Overcast
1:53 PM 42.1 °F 40.2 °F 33.1 °F 70% 30.07 in 10.0 mi West 3.5 mph - N/A   Overcast
2:53 PM 43.0 °F - 33.1 °F 68% 30.08 in 10.0 mi Calm Calm - N/A   Overcast
3:53 PM 43.0 °F - 33.1 °F 68% 30.10 in 10.0 mi Calm Calm - N/A   Overcast
4:53 PM 42.1 °F - 34.0 °F 73% 30.12 in 10.0 mi Calm Calm - N/A   Overcast
5:53 PM 41.0 °F - 33.1 °F 73% 30.12 in 10.0 mi Calm Calm - N/A   Overcast
6:53 PM 39.0 °F 35.7 °F 34.0 °F 82% 30.13 in 10.0 mi East 4.6 mph - N/A   Overcast
7:53 PM 37.0 °F 33.3 °F 33.1 °F 86% 30.13 in 9.0 mi East 4.6 mph - N/A   Scattered Clouds
8:53 PM 36.0 °F 33.3 °F 32.0 °F 86% 30.14 in 9.0 mi East 3.5 mph - N/A   Clear
9:53 PM 35.1 °F 32.2 °F 32.0 °F 89% 30.13 in 7.0 mi East 3.5 mph - N/A   Scattered Clouds
10:53 PM 36.0 °F 32.1 °F 32.0 °F 86% 30.12 in 7.0 mi East 4.6 mph - N/A   Overcast
11:53 PM 37.0 °F 31.0 °F 33.1 °F 86% 30.08 in 8.0 mi East 8.1 mph - N/A   Overcast